Weather in Krasnaya Zarya

Russia / Oryol Oblast     52°47′08″N   37°40′35″E
temp.,
°C
wind,
m/s
gust,
m/s
humid.,
%
clouds,
%
prec.,
mm/h
press.,
hPa
HPBL,
m
4 march, thu
thu400:00−1wnw7118899 0.0 1015688
03:00−2wsw6129099 0.0 1014360
06:00−3wsw7159253 0.0 1011368
09:00−2wsw8178931 0.0 1009475
12:000wsw8158230 0.0 1007749
15:00+1wsw7139465 0.0 1005769
18:00+1wsw61394100 0.0 1003689
21:00+1wsw51297100 0.1 1003460
5 march, fri
fri500:00−1wnw3898100 0.1 1003478
03:00−3wnw3897100 0.2 1004273
06:00−3n3597100 0.1 1006207
09:00−4nnw2395100 0.1 1008135
12:00−2nw128680 0.0 1009319
15:00−2nw238786 0.0 1010510
18:00−4nnw2390100 0.0 101128
21:00−6n2389100 0.0 101433
6 march, sat
sat600:00−7nne3492100 0.0 101569
03:00−9nne2387100 0.0 101641
06:00−10nne228558 0.0 101621
09:00−9ne118629 0.0 101625
12:00−6s017920 0.0 1016226
15:00−5se007958 0.0 1016276
18:00−8nw008746 0.0 101721
21:00−9wsw118823 0.0 101921
7 march, sun
sun700:00−9nw469586 0.6 1019151
03:00−11wsw469053 0.6 1018120
06:00−9sw7148524 0.0 1015413
09:00−6sw9187862 0.0 1012707
12:00−3sw111976100 0.0 10081184
15:00−2wsw122084100 0.4 10031430
18:00−2wsw112084100 0.1 10011154
21:00−5n71294100 2.3 1002636
8 march, mon
mon800:00−6w41183100 0.4 1003331
03:00−7w6158173 0.4 1003501
06:00−8w6148588 0.1 1004622
09:00−8wnw6128944 0.1 1006807
12:00−7wnw6982100 0.1 10081039
15:00−7nw5781100 0.1 10101008
18:00−10nw338794 0.0 101245
21:00−12nw238781 0.0 101430